Time,TemperatureF,DewpointF,PressureIn,WindDirection,WindDirectionDegrees,WindSpeedMPH,WindSpeedGustMPH,Humidity,HourlyPrecipIn,Conditions,Clouds,dailyrainin,SolarRadiationWatts/m^2,SoftwareType,DateUTC
2013-10-08 00:02:00,53.3,42.6,30.02,West,270,0.0,0.0,67,0.00,,,0.00,0,Wunderground v.1.15,2013-10-08 05:02:00,
2013-10-08 00:07:00,53.4,42.7,30.01,West,267,0.0,0.0,67,0.00,,,0.00,0,Wunderground v.1.15,2013-10-08 05:07:00,
2013-10-08 00:12:00,53.5,42.8,30.01,West,259,2.0,2.0,67,0.00,,,0.00,0,Wunderground v.1.15,2013-10-08 05:12:00,
2013-10-08 00:18:00,53.7,42.6,30.01,WSW,246,1.0,3.0,66,0.00,,,0.00,0,Wunderground v.1.15,2013-10-08 05:18:00,
2013-10-08 00:24:00,53.9,42.4,30.01,SW,227,4.0,4.0,65,0.00,,,0.00,0,Wunderground v.1.15,2013-10-08 05:24:00,
2013-10-08 00:29:00,54.1,42.6,30.01,SW,222,5.0,5.0,65,0.00,,,0.00,0,Wunderground v.1.15,2013-10-08 05:29:00,
2013-10-08 00:34:00,54.3,42.4,30.01,SW,221,0.0,3.0,64,0.00,,,0.00,0,Wunderground v.1.15,2013-10-08 05:34:00,
2013-10-08 00:39:00,54.3,42.4,30.01,SW,221,1.0,3.0,64,0.00,,,0.00,0,Wunderground v.1.15,2013-10-08 05:39:00,
2013-10-08 00:45:00,54.3,42.8,30.01,SW,216,0.0,5.0,65,0.00,,,0.00,0,Wunderground v.1.15,2013-10-08 05:45:00,
2013-10-08 00:50:00,54.2,42.7,30.01,SW,216,0.0,5.0,65,0.00,,,0.00,0,Wunderground v.1.15,2013-10-08 05:50:00,
2013-10-08 00:55:00,54.2,42.7,30.01,SSW,203,1.0,5.0,65,0.00,,,0.00,0,Wunderground v.1.15,2013-10-08 05:55:00,
2013-10-08 01:00:00,54.3,42.8,30.01,SSW,203,0.0,5.0,65,0.00,,,0.00,0,Wunderground v.1.15,2013-10-08 06:00:00,
2013-10-08 01:05:00,54.2,42.7,30.01,SSW,199,0.0,3.0,65,0.00,,,0.00,0,Wunderground v.1.15,2013-10-08 06:05:00,
2013-10-08 01:11:00,54.3,42.8,30.01,South,182,0.0,1.0,65,0.00,,,0.00,0,Wunderground v.1.15,2013-10-08 06:11:00,
2013-10-08 01:16:00,54.4,42.9,30.01,South,180,0.0,4.0,65,0.00,,,0.00,0,Wunderground v.1.15,2013-10-08 06:16:00,
2013-10-08 01:21:00,54.5,42.6,30.01,SSE,153,4.0,4.0,64,0.00,,,0.00,0,Wunderground v.1.15,2013-10-08 06:21:00,
2013-10-08 01:26:00,54.5,42.6,30.01,SSE,155,0.0,4.0,64,0.00,,,0.00,0,Wunderground v.1.15,2013-10-08 06:26:00,
2013-10-08 01:31:00,54.5,42.6,30.01,SSE,155,12.0,12.0,64,0.00,,,0.00,0,Wunderground v.1.15,2013-10-08 06:31:00,
2013-10-08 01:37:00,54.5,42.6,30.02,SSE,168,2.0,12.0,64,0.00,,,0.00,0,Wunderground v.1.15,2013-10-08 06:37:00,
2013-10-08 01:42:00,54.5,42.6,30.01,SSE,159,0.0,7.0,64,0.00,,,0.00,0,Wunderground v.1.15,2013-10-08 06:42:00,
2013-10-08 01:47:00,54.3,42.4,30.01,SSE,163,6.0,7.0,64,0.00,,,0.00,0,Wunderground v.1.15,2013-10-08 06:47:00,
2013-10-08 01:52:00,54.2,42.7,30.01,SSE,165,9.0,9.0,65,0.00,,,0.00,0,Wunderground v.1.15,2013-10-08 06:52:00,
2013-10-08 01:57:00,54.1,42.2,30.01,SSE,165,0.0,9.0,64,0.00,,,0.00,0,Wunderground v.1.15,2013-10-08 06:57:00,
2013-10-08 02:02:00,54.1,42.2,30.01,SSE,166,8.0,8.0,64,0.00,,,0.00,0,Wunderground v.1.15,2013-10-08 07:02:00,
2013-10-08 02:07:00,54.1,42.2,30.01,SSE,159,4.0,9.0,64,0.00,,,0.00,0,Wunderground v.1.15,2013-10-08 07:07:00,
2013-10-08 02:12:00,54.2,42.3,30.01,SSE,159,6.0,10.0,64,0.00,,,0.00,0,Wunderground v.1.15,2013-10-08 07:12:00,
2013-10-08 02:17:00,54.4,42.5,30.01,SSE,157,9.0,10.0,64,0.00,,,0.00,0,Wunderground v.1.15,2013-10-08 07:17:00,
2013-10-08 02:22:00,54.5,42.6,30.00,SSE,159,6.0,8.0,64,0.00,,,0.00,0,Wunderground v.1.15,2013-10-08 07:22:00,
2013-10-08 02:27:00,54.6,42.7,30.00,SSE,159,6.0,8.0,64,0.00,,,0.00,0,Wunderground v.1.15,2013-10-08 07:27:00,
2013-10-08 02:32:00,54.6,42.7,30.00,SSE,157,2.0,8.0,64,0.00,,,0.00,0,Wunderground v.1.15,2013-10-08 07:32:00,
2013-10-08 02:37:00,54.5,42.6,30.00,SSE,158,0.0,9.0,64,0.00,,,0.00,0,Wunderground v.1.15,2013-10-08 07:37:00,
2013-10-08 02:42:00,54.5,43.0,30.00,SE,140,0.0,8.0,65,0.00,,,0.00,0,Wunderground v.1.15,2013-10-08 07:42:00,
2013-10-08 02:47:00,54.5,42.6,30.00,SE,141,2.0,17.0,64,0.00,,,0.00,0,Wunderground v.1.15,2013-10-08 07:47:00,
2013-10-08 02:52:00,54.5,43.0,29.99,SSE,153,9.0,9.0,65,0.00,,,0.00,0,Wunderground v.1.15,2013-10-08 07:52:00,
2013-10-08 02:57:00,54.5,43.0,29.99,SSE,148,6.0,9.0,65,0.00,,,0.00,0,Wunderground v.1.15,2013-10-08 07:57:00,
2013-10-08 03:02:00,54.5,43.0,29.99,SSE,153,6.0,9.0,65,0.00,,,0.00,0,Wunderground v.1.15,2013-10-08 08:02:00,
2013-10-08 03:07:00,54.3,42.8,29.99,South,170,7.0,11.0,65,0.00,,,0.00,0,Wunderground v.1.15,2013-10-08 08:07:00,
2013-10-08 03:12:00,54.2,42.7,29.99,SSE,154,4.0,6.0,65,0.00,,,0.00,0,Wunderground v.1.15,2013-10-08 08:12:00,
2013-10-08 03:17:00,54.1,42.6,29.99,SSE,148,0.0,11.0,65,0.00,,,0.00,0,Wunderground v.1.15,2013-10-08 08:17:00,
2013-10-08 03:22:00,54.0,42.9,29.99,SSE,152,4.0,6.0,66,0.00,,,0.00,0,Wunderground v.1.15,2013-10-08 08:22:00,
2013-10-08 03:27:00,53.9,42.8,29.99,SSE,155,0.0,9.0,66,0.00,,,0.00,0,Wunderground v.1.15,2013-10-08 08:27:00,
2013-10-08 03:32:00,53.7,43.0,29.99,SE,143,0.0,5.0,67,0.00,,,0.00,0,Wunderground v.1.15,2013-10-08 08:32:00,
2013-10-08 03:37:00,53.6,42.9,29.99,SE,140,0.0,10.0,67,0.00,,,0.00,0,Wunderground v.1.15,2013-10-08 08:37:00,
2013-10-08 03:42:00,53.4,43.1,29.99,SSE,167,0.0,8.0,68,0.00,,,0.00,0,Wunderground v.1.15,2013-10-08 08:42:00,
2013-10-08 03:47:00,53.3,43.0,29.99,South,174,4.0,9.0,68,0.00,,,0.00,0,Wunderground v.1.15,2013-10-08 08:47:00,
2013-10-08 03:52:00,53.2,42.9,29.98,SSE,160,8.0,8.0,68,0.00,,,0.00,0,Wunderground v.1.15,2013-10-08 08:52:00,
2013-10-08 03:57:00,53.1,43.2,29.99,SSE,158,5.0,8.0,69,0.00,,,0.00,0,Wunderground v.1.15,2013-10-08 08:57:00,
2013-10-08 04:02:00,53.0,43.1,29.98,SSE,147,6.0,9.0,69,0.00,,,0.00,0,Wunderground v.1.15,2013-10-08 09:02:00,
2013-10-08 04:07:00,52.9,43.0,29.98,SSE,158,2.0,11.0,69,0.00,,,0.00,0,Wunderground v.1.15,2013-10-08 09:07:00,
2013-10-08 04:12:00,52.8,42.9,29.98,SSE,157,0.0,3.0,69,0.00,,,0.00,0,Wunderground v.1.15,2013-10-08 09:12:00,
2013-10-08 04:17:00,52.7,43.2,29.98,SSE,161,0.0,9.0,70,0.00,,,0.00,0,Wunderground v.1.15,2013-10-08 09:17:00,
2013-10-08 04:22:00,52.6,43.1,29.98,SSE,167,0.0,5.0,70,0.00,,,0.00,0,Wunderground v.1.15,2013-10-08 09:22:00,
2013-10-08 04:27:00,52.6,43.1,29.98,South,169,2.0,8.0,70,0.00,,,0.00,0,Wunderground v.1.15,2013-10-08 09:27:00,
2013-10-08 04:32:00,52.6,43.1,29.98,SSE,164,7.0,9.0,70,0.00,,,0.00,0,Wunderground v.1.15,2013-10-08 09:32:00,
2013-10-08 04:37:00,52.5,43.4,29.98,SSE,162,0.0,9.0,71,0.00,,,0.00,0,Wunderground v.1.15,2013-10-08 09:37:00,
2013-10-08 04:42:00,52.3,43.2,29.98,SSE,158,0.0,5.0,71,0.00,,,0.00,0,Wunderground v.1.15,2013-10-08 09:42:00,
2013-10-08 04:47:00,52.2,43.4,29.98,SSE,153,0.0,7.0,72,0.00,,,0.00,0,Wunderground v.1.15,2013-10-08 09:47:00,
2013-10-08 04:52:00,52.1,43.3,29.98,SSE,153,0.0,2.0,72,0.00,,,0.00,0,Wunderground v.1.15,2013-10-08 09:52:00,
2013-10-08 04:57:00,52.0,43.3,29.98,SSE,165,1.0,10.0,72,0.00,,,0.00,0,Wunderground v.1.15,2013-10-08 09:57:00,
2013-10-08 05:02:00,52.0,43.6,29.98,SSE,168,7.0,7.0,73,0.00,,,0.00,0,Wunderground v.1.15,2013-10-08 10:02:00,
2013-10-08 05:07:00,52.1,43.7,29.98,SSE,166,4.0,8.0,73,0.00,,,0.00,0,Wunderground v.1.15,2013-10-08 10:07:00,
2013-10-08 05:12:00,52.5,43.7,29.98,SSE,161,4.0,9.0,72,0.00,,,0.00,0,Wunderground v.1.15,2013-10-08 10:12:00,
2013-10-08 05:17:00,52.9,43.7,29.98,SSE,158,2.0,9.0,71,0.00,,,0.00,0,Wunderground v.1.15,2013-10-08 10:17:00,
2013-10-08 05:22:00,53.2,44.0,29.98,SSE,156,0.0,2.0,71,0.00,,,0.00,0,Wunderground v.1.15,2013-10-08 10:22:00,
2013-10-08 05:27:00,53.5,44.0,29.98,SSE,156,2.0,2.0,70,0.00,,,0.00,0,Wunderground v.1.15,2013-10-08 10:27:00,
2013-10-08 05:32:00,53.5,44.0,29.98,SSE,157,2.0,5.0,70,0.00,,,0.00,0,Wunderground v.1.15,2013-10-08 10:32:00,
2013-10-08 05:37:00,53.6,44.0,29.97,SSE,157,0.0,6.0,70,0.00,,,0.00,0,Wunderground v.1.15,2013-10-08 10:37:00,
2013-10-08 05:42:00,53.4,43.9,29.98,SSE,153,0.0,5.0,70,0.00,,,0.00,0,Wunderground v.1.15,2013-10-08 10:42:00,
2013-10-08 05:47:00,53.3,44.1,29.97,SSE,152,0.0,6.0,71,0.00,,,0.00,0,Wunderground v.1.15,2013-10-08 10:47:00,
2013-10-08 05:52:00,53.2,44.0,29.97,SSE,151,1.0,2.0,71,0.00,,,0.00,0,Wunderground v.1.15,2013-10-08 10:52:00,
2013-10-08 05:57:00,53.1,43.9,29.97,SSE,151,0.0,5.0,71,0.00,,,0.00,0,Wunderground v.1.15,2013-10-08 10:57:00,
2013-10-08 06:02:00,53.3,44.1,29.97,SSE,151,1.0,1.0,71,0.00,,,0.00,0,Wunderground v.1.15,2013-10-08 11:02:00,
2013-10-08 06:07:00,53.4,44.2,29.98,SSE,151,0.0,4.0,71,0.00,,,0.00,0,Wunderground v.1.15,2013-10-08 11:07:00,
2013-10-08 06:12:00,53.4,43.9,29.97,SSE,152,7.0,7.0,70,0.00,,,0.00,0,Wunderground v.1.15,2013-10-08 11:12:00,
2013-10-08 06:17:00,53.2,44.0,29.97,SSE,153,1.0,7.0,71,0.00,,,0.00,0,Wunderground v.1.15,2013-10-08 11:17:00,
2013-10-08 06:22:00,53.1,43.9,29.97,SSE,156,4.0,7.0,71,0.00,,,0.00,0,Wunderground v.1.15,2013-10-08 11:22:00,
2013-10-08 06:27:00,53.1,43.9,29.97,SSE,158,0.0,8.0,71,0.00,,,0.00,0,Wunderground v.1.15,2013-10-08 11:27:00,
2013-10-08 06:32:00,53.1,43.9,29.97,SSE,159,0.0,4.0,71,0.00,,,0.00,0,Wunderground v.1.15,2013-10-08 11:32:00,
2013-10-08 06:37:00,53.3,44.1,29.97,SSE,155,4.0,8.0,71,0.00,,,0.00,0,Wunderground v.1.15,2013-10-08 11:37:00,
2013-10-08 06:42:00,53.3,43.8,29.97,SSE,157,4.0,6.0,70,0.00,,,0.00,0,Wunderground v.1.15,2013-10-08 11:42:00,
2013-10-08 06:47:00,53.3,44.1,29.97,SSE,163,5.0,7.0,71,0.00,,,0.00,0,Wunderground v.1.15,2013-10-08 11:47:00,
2013-10-08 06:52:00,53.4,43.9,29.97,SSE,165,0.0,5.0,70,0.00,,,0.00,0,Wunderground v.1.15,2013-10-08 11:52:00,
2013-10-08 06:57:00,53.5,44.0,29.97,SSE,163,0.0,6.0,70,0.00,,,0.00,0,Wunderground v.1.15,2013-10-08 11:57:00,
2013-10-08 07:02:00,53.5,44.0,29.97,SSE,160,4.0,9.0,70,0.00,,,0.00,0,Wunderground v.1.15,2013-10-08 12:02:00,
2013-10-08 07:07:00,53.5,44.0,29.97,SSE,161,0.0,9.0,70,0.00,,,0.00,0,Wunderground v.1.15,2013-10-08 12:07:00,
2013-10-08 07:12:00,53.7,43.8,29.96,SSE,162,0.0,7.0,69,0.00,,,0.00,0,Wunderground v.1.15,2013-10-08 12:12:00,
2013-10-08 07:17:00,53.8,43.9,29.96,SSE,161,0.0,7.0,69,0.00,,,0.00,5,Wunderground v.1.15,2013-10-08 12:17:00,
2013-10-08 07:22:00,53.8,43.9,29.96,SSE,160,0.0,7.0,69,0.00,,,0.00,9,Wunderground v.1.15,2013-10-08 12:22:00,
2013-10-08 07:27:00,53.8,43.9,29.96,SSE,168,4.0,10.0,69,0.00,,,0.00,11,Wunderground v.1.15,2013-10-08 12:27:00,
2013-10-08 07:32:00,53.9,44.0,29.96,SSE,156,0.0,2.0,69,0.00,,,0.00,16,Wunderground v.1.15,2013-10-08 12:32:00,
2013-10-08 07:37:00,54.0,43.7,29.96,SSE,155,5.0,12.0,68,0.00,,,0.00,21,Wunderground v.1.15,2013-10-08 12:37:00,
2013-10-08 07:42:00,54.1,43.8,29.97,SSE,160,0.0,5.0,68,0.00,,,0.00,28,Wunderground v.1.15,2013-10-08 12:42:00,
2013-10-08 07:47:00,54.3,44.0,29.96,SSE,161,4.0,9.0,68,0.00,,,0.00,39,Wunderground v.1.15,2013-10-08 12:47:00,
2013-10-08 07:52:00,54.4,44.1,29.96,SE,141,2.0,6.0,68,0.00,,,0.00,54,Wunderground v.1.15,2013-10-08 12:52:00,
2013-10-08 07:57:00,54.5,43.8,29.96,South,169,7.0,10.0,67,0.00,,,0.00,67,Wunderground v.1.15,2013-10-08 12:57:00,
2013-10-08 08:02:00,54.5,44.2,29.96,South,178,1.0,10.0,68,0.00,,,0.00,79,Wunderground v.1.15,2013-10-08 13:02:00,
2013-10-08 08:07:00,54.7,44.0,29.96,SSE,167,0.0,11.0,67,0.00,,,0.00,97,Wunderground v.1.15,2013-10-08 13:07:00,
2013-10-08 08:12:00,54.8,44.0,29.96,SSE,165,2.0,10.0,67,0.00,,,0.00,91,Wunderground v.1.15,2013-10-08 13:12:00,
2013-10-08 08:17:00,55.0,44.2,29.96,SSE,167,9.0,10.0,67,0.00,,,0.00,95,Wunderground v.1.15,2013-10-08 13:17:00,
2013-10-08 08:22:00,55.2,44.0,29.96,South,178,0.0,7.0,66,0.00,,,0.00,137,Wunderground v.1.15,2013-10-08 13:22:00,
2013-10-08 08:27:00,55.3,44.5,29.96,South,182,3.0,9.0,67,0.00,,,0.00,158,Wunderground v.1.15,2013-10-08 13:27:00,
2013-10-08 08:32:00,55.6,44.4,29.96,South,171,0.0,8.0,66,0.00,,,0.00,176,Wunderground v.1.15,2013-10-08 13:32:00,
2013-10-08 08:37:00,55.8,44.2,29.96,South,177,5.0,15.0,65,0.00,,,0.00,183,Wunderground v.1.15,2013-10-08 13:37:00,
2013-10-08 08:42:00,55.9,44.3,29.96,South,180,9.0,11.0,65,0.00,,,0.00,202,Wunderground v.1.15,2013-10-08 13:42:00,
2013-10-08 08:47:00,56.0,44.4,29.96,South,173,7.0,12.0,65,0.00,,,0.00,209,Wunderground v.1.15,2013-10-08 13:47:00,
2013-10-08 08:52:00,56.3,44.3,29.95,South,191,8.0,9.0,64,0.00,,,0.00,223,Wunderground v.1.15,2013-10-08 13:52:00,
2013-10-08 08:57:00,56.5,44.5,29.95,SSE,162,10.0,14.0,64,0.00,,,0.00,243,Wunderground v.1.15,2013-10-08 13:57:00,
2013-10-08 09:02:00,56.9,44.4,29.95,SSE,158,6.0,15.0,63,0.00,,,0.00,255,Wunderground v.1.15,2013-10-08 14:02:00,
2013-10-08 09:07:00,57.1,44.6,29.95,SSE,163,9.0,15.0,63,0.00,,,0.00,269,Wunderground v.1.15,2013-10-08 14:07:00,
2013-10-08 09:12:00,57.3,44.8,29.94,SSE,159,7.0,19.0,63,0.00,,,0.00,285,Wunderground v.1.15,2013-10-08 14:12:00,
2013-10-08 09:17:00,57.7,44.8,29.94,SW,215,11.0,19.0,62,0.00,,,0.00,295,Wunderground v.1.15,2013-10-08 14:17:00,
2013-10-08 09:22:00,57.8,44.9,29.94,South,178,5.0,9.0,62,0.00,,,0.00,315,Wunderground v.1.15,2013-10-08 14:22:00,
2013-10-08 09:27:00,58.1,44.7,29.94,South,186,9.0,21.0,61,0.00,,,0.00,327,Wunderground v.1.15,2013-10-08 14:27:00,
2013-10-08 09:32:00,58.1,45.1,29.94,SSE,157,12.0,12.0,62,0.00,,,0.00,338,Wunderground v.1.15,2013-10-08 14:32:00,
2013-10-08 09:37:00,58.4,45.0,29.94,SSE,153,8.0,12.0,61,0.00,,,0.00,352,Wunderground v.1.15,2013-10-08 14:37:00,
2013-10-08 09:42:00,58.9,45.0,29.94,SSE,163,7.0,11.0,60,0.00,,,0.00,373,Wunderground v.1.15,2013-10-08 14:42:00,
2013-10-08 09:47:00,59.1,45.2,29.94,SSE,165,8.0,16.0,60,0.00,,,0.00,387,Wunderground v.1.15,2013-10-08 14:47:00,
2013-10-08 09:52:00,59.5,45.2,29.94,South,190,11.0,16.0,59,0.00,,,0.00,397,Wunderground v.1.15,2013-10-08 14:52:00,
2013-10-08 09:57:00,59.7,45.3,29.94,SSE,165,15.0,17.0,59,0.00,,,0.00,408,Wunderground v.1.15,2013-10-08 14:57:00,
2013-10-08 10:02:00,60.0,45.2,29.94,South,181,9.0,17.0,58,0.00,,,0.00,434,Wunderground v.1.15,2013-10-08 15:02:00,
2013-10-08 10:08:00,60.4,45.5,29.94,South,175,9.0,22.0,58,0.00,,,0.00,383,Wunderground v.1.15,2013-10-08 15:08:00,
2013-10-08 10:13:00,60.5,45.2,29.94,SSE,167,7.0,16.0,57,0.00,,,0.00,376,Wunderground v.1.15,2013-10-08 15:13:00,
2013-10-08 10:18:00,60.8,45.9,29.94,South,171,10.0,16.0,58,0.00,,,0.00,464,Wunderground v.1.15,2013-10-08 15:18:00,
2013-10-08 10:23:00,61.1,45.7,29.94,SSE,161,0.0,14.0,57,0.00,,,0.00,492,Wunderground v.1.15,2013-10-08 15:23:00,
2013-10-08 10:28:00,61.5,46.1,29.94,SSE,153,4.0,17.0,57,0.00,,,0.00,381,Wunderground v.1.15,2013-10-08 15:28:00,
2013-10-08 10:33:00,61.7,46.3,29.94,South,169,6.0,17.0,57,0.00,,,0.00,503,Wunderground v.1.15,2013-10-08 15:33:00,
2013-10-08 10:38:00,62.0,46.6,29.94,South,186,8.0,17.0,57,0.00,,,0.00,260,Wunderground v.1.15,2013-10-08 15:38:00,
2013-10-08 10:43:00,62.3,46.9,29.94,SSE,156,0.0,14.0,57,0.00,,,0.00,527,Wunderground v.1.15,2013-10-08 15:43:00,
2013-10-08 10:48:00,62.7,46.8,29.94,SSE,165,5.0,15.0,56,0.00,,,0.00,248,Wunderground v.1.15,2013-10-08 15:48:00,
2013-10-08 10:53:00,62.9,46.5,29.94,SSW,202,12.0,18.0,55,0.00,,,0.00,292,Wunderground v.1.15,2013-10-08 15:53:00,
2013-10-08 10:58:00,63.0,46.6,29.93,SSW,195,6.0,18.0,55,0.00,,,0.00,297,Wunderground v.1.15,2013-10-08 15:58:00,
2013-10-08 11:03:00,63.4,46.5,29.93,South,186,9.0,15.0,54,0.00,,,0.00,462,Wunderground v.1.15,2013-10-08 16:03:00,
2013-10-08 11:08:00,63.8,47.3,29.93,South,186,0.0,15.0,55,0.00,,,0.00,492,Wunderground v.1.15,2013-10-08 16:08:00,
2013-10-08 11:13:00,64.3,46.8,29.93,South,184,10.0,14.0,53,0.00,,,0.00,499,Wunderground v.1.15,2013-10-08 16:13:00,
2013-10-08 11:18:00,64.7,46.7,29.93,South,180,8.0,15.0,52,0.00,,,0.00,554,Wunderground v.1.15,2013-10-08 16:18:00,
2013-10-08 11:23:00,65.2,46.6,29.93,South,173,8.0,16.0,51,0.00,,,0.00,563,Wunderground v.1.15,2013-10-08 16:23:00,
2013-10-08 11:28:00,65.6,47.5,29.92,South,178,7.0,18.0,52,0.00,,,0.00,517,Wunderground v.1.15,2013-10-08 16:28:00,
2013-10-08 11:33:00,66.3,47.6,29.92,South,182,0.0,13.0,51,0.00,,,0.00,548,Wunderground v.1.15,2013-10-08 16:33:00,
2013-10-08 11:38:00,66.9,47.6,29.92,South,191,9.0,14.0,50,0.00,,,0.00,563,Wunderground v.1.15,2013-10-08 16:38:00,
2013-10-08 11:43:00,67.3,48.0,29.92,SSW,192,3.0,12.0,50,0.00,,,0.00,582,Wunderground v.1.15,2013-10-08 16:43:00,
2013-10-08 11:48:00,67.7,48.4,29.92,South,180,4.0,16.0,50,0.00,,,0.00,612,Wunderground v.1.15,2013-10-08 16:48:00,
2013-10-08 11:53:00,68.5,47.5,29.91,SW,217,13.0,14.0,47,0.00,,,0.00,643,Wunderground v.1.15,2013-10-08 16:53:00,
2013-10-08 11:58:00,69.1,48.0,29.91,South,179,11.0,15.0,47,0.00,,,0.00,431,Wunderground v.1.15,2013-10-08 16:58:00,
2013-10-08 12:03:00,69.4,47.7,29.91,SSE,153,8.0,13.0,46,0.00,,,0.00,455,Wunderground v.1.15,2013-10-08 17:03:00,
2013-10-08 12:08:00,69.6,46.7,29.91,South,190,16.0,24.0,44,0.00,,,0.00,615,Wunderground v.1.15,2013-10-08 17:08:00,
2013-10-08 12:13:00,69.9,46.4,29.91,South,175,6.0,23.0,43,0.00,,,0.00,731,Wunderground v.1.15,2013-10-08 17:13:00,
2013-10-08 12:18:00,70.2,46.6,29.91,SSE,153,8.0,23.0,43,0.00,,,0.00,663,Wunderground v.1.15,2013-10-08 17:18:00,
2013-10-08 12:23:00,70.2,46.6,29.91,SSE,162,14.0,18.0,43,0.00,,,0.00,274,Wunderground v.1.15,2013-10-08 17:23:00,
2013-10-08 12:29:00,70.1,47.2,29.90,ESE,106,15.0,18.0,44,0.00,,,0.00,338,Wunderground v.1.15,2013-10-08 17:29:00,
2013-10-08 12:34:00,70.0,46.5,29.90,SSW,209,12.0,21.0,43,0.00,,,0.00,348,Wunderground v.1.15,2013-10-08 17:34:00,
2013-10-08 12:39:00,70.2,47.3,29.90,SSW,202,6.0,21.0,44,0.00,,,0.00,584,Wunderground v.1.15,2013-10-08 17:39:00,
2013-10-08 12:44:00,70.6,47.6,29.90,SSE,160,12.0,14.0,44,0.00,,,0.00,703,Wunderground v.1.15,2013-10-08 17:44:00,
2013-10-08 12:49:00,71.1,47.5,29.90,SSW,202,7.0,18.0,43,0.00,,,0.00,675,Wunderground v.1.15,2013-10-08 17:49:00,
2013-10-08 12:54:00,71.4,47.7,29.90,SSW,209,8.0,14.0,43,0.00,,,0.00,577,Wunderground v.1.15,2013-10-08 17:54:00,
2013-10-08 12:59:00,71.5,47.8,29.90,South,186,5.0,19.0,43,0.00,,,0.00,663,Wunderground v.1.15,2013-10-08 17:59:00,
2013-10-08 13:04:00,71.7,46.7,29.89,South,174,15.0,22.0,41,0.00,,,0.00,684,Wunderground v.1.15,2013-10-08 18:04:00,
2013-10-08 13:09:00,72.0,47.0,29.89,ESE,120,14.0,23.0,41,0.00,,,0.00,689,Wunderground v.1.15,2013-10-08 18:09:00,
2013-10-08 13:14:00,72.3,47.3,29.89,South,184,4.0,18.0,41,0.00,,,0.00,666,Wunderground v.1.15,2013-10-08 18:14:00,
2013-10-08 13:19:00,72.5,47.5,29.89,South,189,13.0,23.0,41,0.00,,,0.00,680,Wunderground v.1.15,2013-10-08 18:19:00,
2013-10-08 13:24:00,72.7,47.0,29.89,SSW,200,7.0,17.0,40,0.00,,,0.00,666,Wunderground v.1.15,2013-10-08 18:24:00,
2013-10-08 13:29:00,72.7,47.0,29.88,SSW,202,12.0,27.0,40,0.00,,,0.00,661,Wunderground v.1.15,2013-10-08 18:29:00,
2013-10-08 13:34:00,72.9,47.2,29.88,South,180,3.0,19.0,40,0.00,,,0.00,652,Wunderground v.1.15,2013-10-08 18:34:00,
2013-10-08 13:39:00,73.1,46.7,29.88,South,176,10.0,21.0,39,0.00,,,0.00,652,Wunderground v.1.15,2013-10-08 18:39:00,
2013-10-08 13:44:00,73.2,46.8,29.88,SSE,164,9.0,22.0,39,0.00,,,0.00,647,Wunderground v.1.15,2013-10-08 18:44:00,
2013-10-08 13:49:00,73.3,46.8,29.88,SSE,155,2.0,22.0,39,0.00,,,0.00,640,Wunderground v.1.15,2013-10-08 18:49:00,
2013-10-08 13:54:00,73.6,47.1,29.88,SSW,201,15.0,18.0,39,0.00,,,0.00,643,Wunderground v.1.15,2013-10-08 18:54:00,
2013-10-08 13:59:00,73.8,47.3,29.88,SE,134,14.0,21.0,39,0.00,,,0.00,631,Wunderground v.1.15,2013-10-08 18:59:00,
2013-10-08 14:04:00,73.8,46.6,29.87,SSW,203,17.0,25.0,38,0.00,,,0.00,584,Wunderground v.1.15,2013-10-08 19:04:00,
2013-10-08 14:09:00,73.8,46.6,29.87,SSW,212,10.0,25.0,38,0.00,,,0.00,592,Wunderground v.1.15,2013-10-08 19:09:00,
2013-10-08 14:14:00,73.9,46.7,29.87,SSE,165,9.0,15.0,38,0.00,,,0.00,584,Wunderground v.1.15,2013-10-08 19:14:00,
2013-10-08 14:19:00,74.0,46.8,29.87,SSW,202,12.0,28.0,38,0.00,,,0.00,573,Wunderground v.1.15,2013-10-08 19:19:00,
2013-10-08 14:24:00,74.1,46.9,29.87,South,185,1.0,14.0,38,0.00,,,0.00,605,Wunderground v.1.15,2013-10-08 19:24:00,
2013-10-08 14:29:00,74.5,47.2,29.87,SE,144,17.0,21.0,38,0.00,,,0.00,517,Wunderground v.1.15,2013-10-08 19:29:00,
2013-10-08 14:34:00,74.7,46.7,29.87,SW,215,16.0,19.0,37,0.00,,,0.00,584,Wunderground v.1.15,2013-10-08 19:34:00,
2013-10-08 14:39:00,74.7,45.2,29.87,SSE,151,17.0,25.0,35,0.00,,,0.00,580,Wunderground v.1.15,2013-10-08 19:39:00,
2013-10-08 14:44:00,74.6,45.9,29.87,SSE,166,20.0,24.0,36,0.00,,,0.00,566,Wunderground v.1.15,2013-10-08 19:44:00,
2013-10-08 14:49:00,74.7,46.0,29.87,South,187,17.0,26.0,36,0.00,,,0.00,519,Wunderground v.1.15,2013-10-08 19:49:00,
2013-10-08 14:54:00,74.8,46.1,29.87,SW,214,19.0,19.0,36,0.00,,,0.00,526,Wunderground v.1.15,2013-10-08 19:54:00,
2013-10-08 14:59:00,75.2,46.4,29.87,SW,221,8.0,19.0,36,0.00,,,0.00,522,Wunderground v.1.15,2013-10-08 19:59:00,
2013-10-08 15:04:00,75.4,46.6,29.87,South,189,6.0,18.0,36,0.00,,,0.00,512,Wunderground v.1.15,2013-10-08 20:04:00,
2013-10-08 15:09:00,75.4,46.6,29.87,SSW,194,6.0,22.0,36,0.00,,,0.00,550,Wunderground v.1.15,2013-10-08 20:09:00,
2013-10-08 15:14:00,75.5,46.7,29.86,SSW,197,6.0,16.0,36,0.00,,,0.00,550,Wunderground v.1.15,2013-10-08 20:14:00,
2013-10-08 15:19:00,75.9,46.3,29.87,SW,217,17.0,20.0,35,0.00,,,0.00,529,Wunderground v.1.15,2013-10-08 20:19:00,
2013-10-08 15:24:00,75.8,45.4,29.87,South,184,3.0,26.0,34,0.00,,,0.00,520,Wunderground v.1.15,2013-10-08 20:24:00,
2013-10-08 15:29:00,75.7,45.3,29.87,South,175,11.0,26.0,34,0.00,,,0.00,476,Wunderground v.1.15,2013-10-08 20:29:00,
2013-10-08 15:34:00,75.5,45.2,29.86,South,176,19.0,27.0,34,0.00,,,0.00,432,Wunderground v.1.15,2013-10-08 20:34:00,
2013-10-08 15:39:00,75.3,45.7,29.86,South,182,15.0,27.0,35,0.00,,,0.00,415,Wunderground v.1.15,2013-10-08 20:39:00,
2013-10-08 15:44:00,75.2,46.4,29.86,SE,128,4.0,21.0,36,0.00,,,0.00,304,Wunderground v.1.15,2013-10-08 20:44:00,
2013-10-08 15:49:00,75.0,45.5,29.86,South,169,12.0,23.0,35,0.00,,,0.00,306,Wunderground v.1.15,2013-10-08 20:49:00,
2013-10-08 15:54:00,75.0,45.5,29.86,SSE,158,10.0,20.0,35,0.00,,,0.00,427,Wunderground v.1.15,2013-10-08 20:54:00,
2013-10-08 15:59:00,75.1,44.8,29.86,South,173,5.0,27.0,34,0.00,,,0.00,452,Wunderground v.1.15,2013-10-08 20:59:00,
2013-10-08 16:04:00,75.3,45.7,29.86,South,180,1.0,27.0,35,0.00,,,0.00,425,Wunderground v.1.15,2013-10-08 21:04:00,
2013-10-08 16:09:00,75.6,46.0,29.86,SSW,210,12.0,27.0,35,0.00,,,0.00,390,Wunderground v.1.15,2013-10-08 21:09:00,
2013-10-08 16:14:00,75.7,46.1,29.86,SSW,196,9.0,21.0,35,0.00,,,0.00,380,Wunderground v.1.15,2013-10-08 21:14:00,
2013-10-08 16:19:00,75.9,45.5,29.86,SSW,202,9.0,24.0,34,0.00,,,0.00,315,Wunderground v.1.15,2013-10-08 21:19:00,
2013-10-08 16:24:00,75.9,45.5,29.86,SW,217,8.0,19.0,34,0.00,,,0.00,338,Wunderground v.1.15,2013-10-08 21:24:00,
2013-10-08 16:29:00,75.8,46.2,29.86,SSE,168,10.0,20.0,35,0.00,,,0.00,237,Wunderground v.1.15,2013-10-08 21:29:00,
2013-10-08 16:34:00,75.6,45.2,29.86,SSW,198,6.0,20.0,34,0.00,,,0.00,148,Wunderground v.1.15,2013-10-08 21:34:00,
2013-10-08 16:39:00,75.5,45.2,29.86,South,175,11.0,20.0,34,0.00,,,0.00,169,Wunderground v.1.15,2013-10-08 21:39:00,
2013-10-08 16:44:00,75.3,45.7,29.86,South,175,5.0,16.0,35,0.00,,,0.00,98,Wunderground v.1.15,2013-10-08 21:44:00,
2013-10-08 16:49:00,74.9,45.4,29.86,SSW,205,14.0,24.0,35,0.00,,,0.00,105,Wunderground v.1.15,2013-10-08 21:49:00,
2013-10-08 16:54:00,74.8,44.5,29.86,SSW,192,6.0,23.0,34,0.00,,,0.00,107,Wunderground v.1.15,2013-10-08 21:54:00,
2013-10-08 16:59:00,74.6,44.4,29.86,South,178,18.0,23.0,34,0.00,,,0.00,214,Wunderground v.1.15,2013-10-08 21:59:00,
2013-10-08 17:04:00,74.6,45.1,29.86,SSW,201,8.0,13.0,35,0.00,,,0.00,139,Wunderground v.1.15,2013-10-08 22:04:00,
2013-10-08 17:09:00,74.5,45.0,29.86,SSE,147,2.0,18.0,35,0.00,,,0.00,128,Wunderground v.1.15,2013-10-08 22:09:00,
2013-10-08 17:14:00,74.4,45.0,29.86,SSE,163,4.0,14.0,35,0.00,,,0.00,132,Wunderground v.1.15,2013-10-08 22:14:00,
2013-10-08 17:19:00,74.3,44.9,29.86,South,178,7.0,16.0,35,0.00,,,0.00,171,Wunderground v.1.15,2013-10-08 22:19:00,
2013-10-08 17:24:00,74.4,45.0,29.86,SSW,196,3.0,20.0,35,0.00,,,0.00,167,Wunderground v.1.15,2013-10-08 22:24:00,
2013-10-08 17:29:00,74.6,45.1,29.86,SSW,205,7.0,20.0,35,0.00,,,0.00,181,Wunderground v.1.15,2013-10-08 22:29:00,
2013-10-08 17:34:00,74.6,45.1,29.86,SSE,157,2.0,12.0,35,0.00,,,0.00,156,Wunderground v.1.15,2013-10-08 22:34:00,
2013-10-08 17:39:00,74.5,45.0,29.87,SSE,165,16.0,18.0,35,0.00,,,0.00,142,Wunderground v.1.15,2013-10-08 22:39:00,
2013-10-08 17:44:00,74.4,45.0,29.86,SSE,159,5.0,20.0,35,0.00,,,0.00,111,Wunderground v.1.15,2013-10-08 22:44:00,
2013-10-08 17:49:00,74.2,45.5,29.86,South,189,14.0,20.0,36,0.00,,,0.00,76,Wunderground v.1.15,2013-10-08 22:49:00,
2013-10-08 17:54:00,73.9,45.3,29.86,South,169,7.0,18.0,36,0.00,,,0.00,60,Wunderground v.1.15,2013-10-08 22:54:00,
2013-10-08 17:59:00,73.7,45.1,29.86,SSW,204,8.0,18.0,36,0.00,,,0.00,49,Wunderground v.1.15,2013-10-08 22:59:00,
2013-10-08 18:04:00,73.4,45.5,29.86,SSE,167,10.0,15.0,37,0.00,,,0.00,39,Wunderground v.1.15,2013-10-08 23:04:00,
2013-10-08 18:09:00,73.3,45.4,29.86,South,171,5.0,16.0,37,0.00,,,0.00,37,Wunderground v.1.15,2013-10-08 23:09:00,
2013-10-08 18:14:00,73.1,46.0,29.86,SSE,163,19.0,22.0,38,0.00,,,0.00,21,Wunderground v.1.15,2013-10-08 23:14:00,
2013-10-08 18:19:00,72.9,45.8,29.86,SSE,166,15.0,22.0,38,0.00,,,0.00,18,Wunderground v.1.15,2013-10-08 23:19:00,
2013-10-08 18:24:00,72.8,45.7,29.86,South,173,6.0,16.0,38,0.00,,,0.00,14,Wunderground v.1.15,2013-10-08 23:24:00,
2013-10-08 18:29:00,72.7,45.6,29.86,South,182,8.0,16.0,38,0.00,,,0.00,11,Wunderground v.1.15,2013-10-08 23:29:00,
2013-10-08 18:34:00,72.7,46.3,29.86,South,175,8.0,22.0,39,0.00,,,0.00,7,Wunderground v.1.15,2013-10-08 23:34:00,
2013-10-08 18:39:00,72.5,46.1,29.86,South,173,11.0,22.0,39,0.00,,,0.00,7,Wunderground v.1.15,2013-10-08 23:39:00,
2013-10-08 18:44:00,72.3,45.9,29.86,SSE,158,18.0,18.0,39,0.00,,,0.00,0,Wunderground v.1.15,2013-10-08 23:44:00,
2013-10-08 18:49:00,72.2,45.9,29.86,South,177,8.0,18.0,39,0.00,,,0.00,0,Wunderground v.1.15,2013-10-08 23:49:00,
2013-10-08 18:54:00,72.0,45.7,29.86,South,190,3.0,19.0,39,0.00,,,0.00,0,Wunderground v.1.15,2013-10-08 23:54:00,
2013-10-08 18:59:00,72.0,45.7,29.86,South,179,6.0,20.0,39,0.00,,,0.00,0,Wunderground v.1.15,2013-10-08 23:59:00,
2013-10-08 19:04:00,71.9,45.6,29.86,SSW,192,9.0,19.0,39,0.00,,,0.00,0,Wunderground v.1.15,2013-10-09 00:04:00,
2013-10-08 19:09:00,71.8,45.5,29.86,SSE,156,10.0,21.0,39,0.00,,,0.00,0,Wunderground v.1.15,2013-10-09 00:09:00,
2013-10-08 19:14:00,71.6,45.3,29.86,South,190,3.0,14.0,39,0.00,,,0.00,0,Wunderground v.1.15,2013-10-09 00:14:00,
2013-10-08 19:19:00,71.5,45.2,29.86,SE,140,6.0,19.0,39,0.00,,,0.00,0,Wunderground v.1.15,2013-10-09 00:19:00,
2013-10-08 19:24:00,71.4,45.1,29.86,SSW,205,14.0,20.0,39,0.00,,,0.00,0,Wunderground v.1.15,2013-10-09 00:24:00,
2013-10-08 19:29:00,71.3,45.7,29.86,South,178,0.0,20.0,40,0.00,,,0.00,0,Wunderground v.1.15,2013-10-09 00:29:00,
2013-10-08 19:34:00,71.3,45.7,29.87,South,177,2.0,19.0,40,0.00,,,0.00,0,Wunderground v.1.15,2013-10-09 00:34:00,
2013-10-08 19:39:00,71.2,45.6,29.87,SSW,204,17.0,19.0,40,0.00,,,0.00,0,Wunderground v.1.15,2013-10-09 00:39:00,
2013-10-08 19:44:00,71.2,45.6,29.87,SSW,201,9.0,17.0,40,0.00,,,0.00,0,Wunderground v.1.15,2013-10-09 00:44:00,
2013-10-08 19:49:00,71.1,45.5,29.87,SSE,163,12.0,23.0,40,0.00,,,0.00,0,Wunderground v.1.15,2013-10-09 00:49:00,
2013-10-08 19:54:00,71.0,45.5,29.88,SSE,163,6.0,13.0,40,0.00,,,0.00,0,Wunderground v.1.15,2013-10-09 00:54:00,
2013-10-08 19:59:00,70.9,45.4,29.88,South,184,8.0,20.0,40,0.00,,,0.00,0,Wunderground v.1.15,2013-10-09 00:59:00,
2013-10-08 20:04:00,70.7,45.8,29.88,South,169,12.0,21.0,41,0.00,,,0.00,0,Wunderground v.1.15,2013-10-09 01:04:00,
2013-10-08 20:09:00,70.6,45.7,29.88,South,189,13.0,21.0,41,0.00,,,0.00,0,Wunderground v.1.15,2013-10-09 01:09:00,
2013-10-08 20:14:00,70.5,45.7,29.88,SSW,202,12.0,18.0,41,0.00,,,0.00,0,Wunderground v.1.15,2013-10-09 01:14:00,
2013-10-08 20:19:00,70.4,45.6,29.88,SSW,205,8.0,19.0,41,0.00,,,0.00,0,Wunderground v.1.15,2013-10-09 01:19:00,
2013-10-08 20:24:00,70.3,45.5,29.88,South,180,9.0,21.0,41,0.00,,,0.00,0,Wunderground v.1.15,2013-10-09 01:24:00,
2013-10-08 20:29:00,70.3,45.5,29.88,SSW,207,11.0,21.0,41,0.00,,,0.00,0,Wunderground v.1.15,2013-10-09 01:29:00,
2013-10-08 20:34:00,70.3,46.1,29.88,SSW,211,11.0,17.0,42,0.00,,,0.00,0,Wunderground v.1.15,2013-10-09 01:34:00,
2013-10-08 20:39:00,70.1,45.9,29.88,South,173,12.0,19.0,42,0.00,,,0.00,0,Wunderground v.1.15,2013-10-09 01:39:00,
2013-10-08 20:44:00,69.9,45.8,29.89,SSW,198,6.0,24.0,42,0.00,,,0.00,0,Wunderground v.1.15,2013-10-09 01:44:00,
2013-10-08 20:50:00,69.9,45.8,29.89,South,174,9.0,24.0,42,0.00,,,0.00,0,Wunderground v.1.15,2013-10-09 01:50:00,
2013-10-08 20:55:00,69.7,45.6,29.89,SSW,202,11.0,23.0,42,0.00,,,0.00,0,Wunderground v.1.15,2013-10-09 01:55:00,
2013-10-08 21:00:00,69.6,46.1,29.89,SSW,209,8.0,23.0,43,0.00,,,0.00,0,Wunderground v.1.15,2013-10-09 02:00:00,
2013-10-08 21:05:00,69.4,45.9,29.90,SSE,163,11.0,25.0,43,0.00,,,0.00,0,Wunderground v.1.15,2013-10-09 02:05:00,
2013-10-08 21:10:00,69.3,45.8,29.90,South,180,8.0,25.0,43,0.00,,,0.00,0,Wunderground v.1.15,2013-10-09 02:10:00,
2013-10-08 21:15:00,69.2,45.7,29.91,SSW,203,12.0,20.0,43,0.00,,,0.00,0,Wunderground v.1.15,2013-10-09 02:15:00,
2013-10-08 21:20:00,69.0,46.2,29.91,SSW,212,12.0,20.0,44,0.00,,,0.00,0,Wunderground v.1.15,2013-10-09 02:20:00,
2013-10-08 21:25:00,68.8,46.0,29.91,SSW,192,6.0,17.0,44,0.00,,,0.00,0,Wunderground v.1.15,2013-10-09 02:25:00,
2013-10-08 21:30:00,68.6,46.4,29.92,SSW,202,7.0,18.0,45,0.00,,,0.00,0,Wunderground v.1.15,2013-10-09 02:30:00,
2013-10-08 21:35:00,68.4,46.8,29.93,SW,220,6.0,16.0,46,0.00,,,0.00,0,Wunderground v.1.15,2013-10-09 02:35:00,
2013-10-08 21:40:00,68.3,46.7,29.93,SSW,205,6.0,17.0,46,0.00,,,0.00,0,Wunderground v.1.15,2013-10-09 02:40:00,
2013-10-08 21:45:00,68.3,46.7,29.93,SSW,194,6.0,14.0,46,0.00,,,0.00,0,Wunderground v.1.15,2013-10-09 02:45:00,
2013-10-08 21:50:00,68.2,46.6,29.93,South,180,2.0,17.0,46,0.00,,,0.00,0,Wunderground v.1.15,2013-10-09 02:50:00,
2013-10-08 21:55:00,67.9,46.3,29.93,South,175,7.0,10.0,46,0.00,,,0.00,0,Wunderground v.1.15,2013-10-09 02:55:00,
2013-10-08 22:00:00,67.7,46.2,29.93,SSW,213,10.0,15.0,46,0.00,,,0.00,0,Wunderground v.1.15,2013-10-09 03:00:00,
2013-10-08 22:05:00,67.7,46.2,29.93,SSW,200,11.0,14.0,46,0.00,,,0.00,0,Wunderground v.1.15,2013-10-09 03:05:00,
2013-10-08 22:10:00,67.5,46.6,29.93,SSW,213,4.0,14.0,47,0.00,,,0.00,0,Wunderground v.1.15,2013-10-09 03:10:00,
2013-10-08 22:15:00,67.4,46.5,29.93,SSE,161,9.0,13.0,47,0.00,,,0.00,0,Wunderground v.1.15,2013-10-09 03:15:00,
2013-10-08 22:20:00,67.2,46.3,29.93,SSE,166,9.0,13.0,47,0.00,,,0.00,0,Wunderground v.1.15,2013-10-09 03:20:00,
2013-10-08 22:25:00,67.1,46.7,29.93,South,184,5.0,12.0,48,0.00,,,0.00,0,Wunderground v.1.15,2013-10-09 03:25:00,
2013-10-08 22:30:00,67.0,46.7,29.93,South,184,8.0,13.0,48,0.00,,,0.00,0,Wunderground v.1.15,2013-10-09 03:30:00,
2013-10-08 22:35:00,66.9,46.6,29.93,SSW,198,8.0,11.0,48,0.00,,,0.00,0,Wunderground v.1.15,2013-10-09 03:35:00,
2013-10-08 22:40:00,66.8,46.5,29.94,South,180,7.0,15.0,48,0.00,,,0.00,0,Wunderground v.1.15,2013-10-09 03:40:00,
2013-10-08 22:45:00,66.6,46.8,29.94,South,189,3.0,12.0,49,0.00,,,0.00,0,Wunderground v.1.15,2013-10-09 03:45:00,
2013-10-08 22:50:00,66.5,46.7,29.94,South,184,1.0,12.0,49,0.00,,,0.00,0,Wunderground v.1.15,2013-10-09 03:50:00,
2013-10-08 22:55:00,66.5,46.7,29.94,SSW,192,10.0,11.0,49,0.00,,,0.00,0,Wunderground v.1.15,2013-10-09 03:55:00,
2013-10-08 23:00:00,66.3,47.1,29.94,SSW,192,5.0,11.0,50,0.00,,,0.00,0,Wunderground v.1.15,2013-10-09 04:00:00,
2013-10-08 23:01:00,66.3,47.1,29.94,SSW,206,3.0,5.0,50,0.00,,,0.00,0,Wunderground v.1.15,2013-10-09 04:01:00,
2013-10-08 23:06:00,66.2,47.0,29.94,SSW,198,0.0,10.0,50,0.00,,,0.00,0,Wunderground v.1.15,2013-10-09 04:06:00,
2013-10-08 23:11:00,66.0,46.8,29.94,SSW,200,0.0,3.0,50,0.00,,,0.00,0,Wunderground v.1.15,2013-10-09 04:11:00,
2013-10-08 23:16:00,66.0,46.8,29.94,SSW,204,2.0,13.0,50,0.00,,,0.00,0,Wunderground v.1.15,2013-10-09 04:16:00,
2013-10-08 23:21:00,66.0,46.8,29.94,SSW,196,0.0,5.0,50,0.00,,,0.00,0,Wunderground v.1.15,2013-10-09 04:21:00,
2013-10-08 23:26:00,65.9,47.3,29.94,SSW,202,0.0,11.0,51,0.00,,,0.00,0,Wunderground v.1.15,2013-10-09 04:26:00,
2013-10-08 23:31:00,65.8,47.2,29.94,SSW,209,4.0,9.0,51,0.00,,,0.00,0,Wunderground v.1.15,2013-10-09 04:31:00,
2013-10-08 23:36:00,65.9,47.3,29.94,South,175,0.0,14.0,51,0.00,,,0.00,0,Wunderground v.1.15,2013-10-09 04:36:00,
2013-10-08 23:41:00,65.8,47.2,29.94,South,190,7.0,12.0,51,0.00,,,0.00,0,Wunderground v.1.15,2013-10-09 04:41:00,
2013-10-08 23:46:00,65.8,47.2,29.95,South,190,7.0,12.0,51,0.00,,,0.00,0,Wunderground v.1.15,2013-10-09 04:46:00,
2013-10-08 23:51:00,65.8,47.2,29.94,SW,219,4.0,9.0,51,0.00,,,0.00,0,Wunderground v.1.15,2013-10-09 04:51:00,
2013-10-08 23:56:00,65.8,47.2,29.95,SSW,206,1.0,13.0,51,0.00,,,0.00,0,Wunderground v.1.15,2013-10-09 04:56:00,